EKRAN 2 DEB, 59988

Orbit data source: Space-Track

EKRAN 2 DEB, 59988 is space debris in GEO originally from a launch on Tue, 20 Sep 1977 UTC launched from the Tyuratam Missile And Space Complex (TTMTR). Debris objects in space refer to the collection of defunct objects orbiting the Earth. Examples of debris include non-operational satellites, rocket bodies, and fragments generated from explosions, collisions, or faulty payload assembly.

Loading next visibility...
EKRAN 2 DEB details
Identifier
59988, 1977-092P
Orbit
GEO
Last TLE update2 days ago
Origin
Flag of CISGUKOS RVSN (CIS)
ManufacturerUnknown
MissionSpacecraft
Bus & MotorUnknown
MassUnknown
Launch date (UTC)
1977-09-20 (47 years ago)
Launch vehicleUnknown
Launch site
Tyuratam Missile And Space Complex (TTMTR)
Object type
Payload
Rocket body
Debris
Shape & HBRUnknown
Radar Cross SectionRCS unknown

Expand to show TLE details & history

TLE from 2 days ago
0 EKRAN 2 DEB
1 59988U 77092P   25045.17037846 -.00000281  00000-0  00000-0 0  9998
2 59988   5.1879 278.5710 0051102  53.2028 160.7520  1.00882363 70122
Epoch: 2025-02-14T04:05Z
Definitive object data (Epoch: 2025-02-14T04:05:20.698Z)
Latitude-2.90274°
Longitude-73.11403°
Altitude35,820.14 km
Speed3.066 km/s
True Right ascension08h 50m 37s
True Declination-2° 53' 59"
Sunlit
Object was in daylight at TLE epoch
Visualization TLE readout
Latitude-0.42519°
Longitude68.01244°
Altitude35,501.087 km
Speed3.089 km/s
Apparent Right ascension18h 32m 45s
Apparent Declination-6° 34' 00"
Sunlit
Object is in daylight
Visualization observer readout
Local Sidereal Time15:48:34
Azimuth131.067° SE
Elevation30.083°
Doppler factor1
Orbital elements
Apogee altitude35,831.959 km
Perigee altitude35,402.748 km
Semi-major axis41,995.49 km
Eccentricity0.0051102
Inclination5.1879°
RAAN278.571°
Arg. of periapsis53.2028°
True anomaly160.94389°
Mean anomaly160.752°
Eccentric anomaly160.84806°
Mean motion0.2522 °/min
BSTARUnknown
Orbital period1427.46 mins
Loading historical data...
59988 neighbors
Authenticating...
Loading maneuver chart data...
Loading historical data...
Loading historical data...
Loading historical data...
Loading historical data...
Loading historical data...
Loading historical data...
Loading historical data...

EKRAN 2 DEB Visibility forecast

Observer location: undefined°, undefined

Span
Click to sort rows by Start time (UTC) header in descending order
Start Az.
Max El. time (UTC)
Max El. Az.
Max El.
End time (UTC)
End Az.
1440 mins2025-02-16 13:01:56.473Z131.081° SE2025-02-16 18:41:56.473Z125.472° SE29.246°2025-02-17 13:01:56.473Z128.641° SE
|